Location: Oshawa
(43.9000°N, 78.8670°W)
Time: 06:19:40
(UTC-04:00)

CARTOSAT-1 - Visible Passes

Search period start: 30 May 2015 00:00
Search period end: 09 June 2015 00:00
Orbit: 617 x 619 km, 97.8° (Epoch: 29 May)

Date Brightness Start Highest point End Pass type
(mag) Time Alt. Az. Time Alt. Az. Time Alt. Az.
30 May 5.5 00:06:06 17° WSW 00:07:29 19° W 00:10:32 10° NW visible
30 May 3.7 22:45:51 30° SE 22:47:50 62° ENE 22:52:07 10° N visible
31 May 6.0 00:22:59 11° WSW 00:24:27 13° W 00:26:17 10° WNW visible
31 May 5.9 21:28:22 10° ENE 21:29:03 10° ENE 21:29:58 10° NE visible
31 May 3.5 23:02:44 34° SSE 23:04:33 87° WSW 23:08:54 10° NNW visible
01 Jun 5.6 21:43:12 10° E 21:45:36 15° ENE 21:48:11 10° NNE visible
01 Jun 3.9 23:19:36 33° SSW 23:21:19 57° W 23:25:35 10° NNW visible
02 Jun 5.1 21:59:21 12° ESE 22:02:12 22° ENE 22:05:32 10° NNE visible
02 Jun 4.6 23:36:29 27° SW 23:38:06 37° W 23:42:08 10° NNW visible
03 Jun 4.6 22:16:14 17° ESE 22:18:49 31° ENE 22:22:39 10° N visible
03 Jun 5.2 23:53:21 20° SW 23:54:58 25° W 23:58:32 10° NW visible
04 Jun 4.1 22:33:07 23° SE 22:35:28 45° ENE 22:39:37 10° N visible
05 Jun 5.7 00:10:14 15° WSW 00:11:52 17° W 00:14:40 10° NW visible
05 Jun 3.6 22:49:59 28° SSE 22:52:09 69° ENE 22:56:28 10° N visible
06 Jun 6.1 00:27:19 10° WSW 00:28:50 11° W 00:30:06 10° WNW visible
06 Jun 5.8 21:31:55 10° E 21:33:19 12° ENE 21:34:55 10° NE visible
06 Jun 3.6 23:06:52 31° S 23:08:52 78° WSW 23:13:13 10° NNW visible
07 Jun 5.5 21:47:12 10° ESE 21:49:52 17° ENE 21:52:41 10° NNE visible
07 Jun 4.1 23:23:45 29° SSW 23:25:38 51° W 23:29:52 10° NNW visible
08 Jun 5.0 22:03:30 12° ESE 22:06:28 24° ENE 22:09:57 10° NNE visible
08 Jun 4.8 23:40:38 24° SW 23:42:26 33° W 23:46:22 10° NNW visible
